EW2353 Weather Reports


Display with metric or nautical units.
time (UTC)temp
F
wind
direction
speed
MPH
gust
MPH
rain 1hr
in
rain 24hr
in
rain mn
in
humidity
%
barometer
mb
20260509033829 54 299 0.0 0.0 0.04 0.05 0.05 95 1010.7
20260509033322 54 299 0.0 0.0 0.04 0.05 0.05 95 1010.7
20260509032815 54 354 0.0 0.0 0.03 0.04 0.04 95 1010.6
20260509032328 55 19 0.0 0.0 0.03 0.04 0.04 94 1010.6
20260509031825 55 1 0.0 0.0 0.04 0.04 0.04 94 1010.7
20260509031318 55 355 0.0 0.0 0.03 0.03 0.03 94 1010.7
20260509030830 55 271 0.0 0.0 0.02 0.02 0.02 94 1010.9
20260509030324 55 354 0.0 0.0 0.02 0.02 0.02 94 1010.9
20260509025816 55 288 0.0 0.0 0.01 0.01 0.01 93 1010.9
20260509025326 55 287 0.0 0.0 0.01 0.01 0.01 93 1010.8
20260509024819 55 26 0.0 0.0 0.01 0.01 0.01 93 1010.8
20260509024312 55 26 0.0 0.0 0.01 0.01 0.01 93 1010.9
20260509023829 55 26 0.0 0.0 0.01 0.01 0.01 92 1011.0
20260509023322 55 1 0.0 0.0 0.01 0.01 0.01 92 1011.1
20260509022814 55 12 0.0 1.0 0.01 0.01 0.01 92 1011.1
20260509022327 55 340 0.0 6.0 0.01 0.01 0.01 92 1011.1
20260509021820 55 351 1.0 6.0 0.00 0.00 0.00 92 1011.0
20260509021313 55 347 0.0 1.0 0.00 0.00 0.00 91 1011.1
20260509020826 55 266 0.0 1.0 0.00 0.00 0.00 91 1011.2
20260509020319 55 57 0.0 1.0 0.00 0.00 0.00 91 1011.2
20260509015815 55 318 0.0 1.0 0.00 0.00 0.00 90 1011.1
20260509015328 55 25 0.0 0.0 0.00 0.00 0.00 90 1011.1
20260509014821 56 27 0.0 0.0 0.00 0.00 0.00 89 1011.1
20260509014314 56 328 0.0 0.0 0.00 0.00 0.00 89 1010.9
20260509013827 56 328 0.0 0.0 0.00 0.00 0.00 88 1010.6
20260509013320 56 329 0.0 0.0 0.00 0.00 0.00 88 1010.4
20260509012833 56 20 0.0 4.0 0.00 0.00 0.00 88 1010.2
20260509012324 56 7 0.0 5.0 0.00 0.00 0.00 87 1010.2
20260509011822 56 15 0.0 1.0 0.00 0.00 0.00 87 1010.1
20260509011314 57 345 0.0 4.0 0.00 0.00 0.00 86 1010.1
20260509010827 57 3 0.0 4.0 0.00 0.00 0.00 85 1010.2
20260509010340 57 340 1.0 4.0 0.00 0.00 0.00 85 1010.3
20260509005812 57 8 0.0 0.0 0.00 0.00 0.00 84 1010.2
20260509005345 57 356 0.0 0.0 0.00 0.00 0.00 83 1010.3
20260509004816 58 352 0.0 1.0 0.00 0.00 0.00 82 1010.2
20260509004329 58 8 0.0 1.0 0.00 0.00 0.00 82 1010.3
20260509003822 58 347 0.0 2.0 0.00 0.00 0.00 81 1010.2
20260509003319 58 313 0.0 4.0 0.00 0.00 0.00 80 1010.3
20260509002829 58 13 0.0 5.0 0.00 0.00 0.00 80 1010.3
20260509002342 59 343 1.0 6.0 0.00 0.00 0.00 79 1010.0
20260509001812 59 359 1.0 6.0 0.00 0.00 0.00 78 1010.0
20260509001325 59 295 2.0 5.0 0.00 0.00 0.00 79 1010.2
20260509000815 59 345 0.0 1.0 0.00 0.00 0.00 79 1010.2
20260509000328 59 259 0.0 0.0 0.00 0.00 0.00 80 1010.0
20260508235822 59 259 0.0 0.0 0.00 0.00 0.00 81 1010.0
20260508235314 60 259 0.0 0.0 0.00 0.00 0.00 82 1010.1
20260508234831 60 259 0.0 0.0 0.00 0.00 0.00 83 1010.1
20260508234324 61 259 0.0 0.0 0.00 0.00 0.00 84 1010.0
20260508233816 61 259 0.0 0.0 0.00 0.00 0.00 81 1009.8
20260508233329 61 259 0.0 0.0 0.00 0.00 0.00 81 1009.8
20260508232842 61 259 0.0 0.0 0.00 0.00 0.00 80 1009.8
20260508232314 61 259 0.0 0.0 0.00 0.00 0.00 81 1009.8
20260508231827 61 259 0.0 0.0 0.00 0.00 0.00 80 1009.7
20260508231320 61 259 0.0 0.0 0.00 0.00 0.00 80 1009.8
20260508230815 61 259 0.0 0.0 0.00 0.00 0.00 74 1009.8
20260508230328 61 259 0.0 0.0 0.00 0.00 0.00 74 1009.7
20260508225818 61 259 0.0 0.0 0.00 0.00 0.00 75 1009.8
20260508225311 61 259 0.0 0.0 0.00 0.00 0.00 73 1009.9
20260508224824 62 259 0.0 0.0 0.00 0.00 0.00 72 1009.9
20260508224317 62 259 0.0 0.0 0.00 0.00 0.00 71 1009.9
20260508223830 62 259 0.0 0.0 0.00 0.00 0.00 69 1009.8
20260508223323 63 259 0.0 0.0 0.00 0.00 0.00 67 1009.7
20260508222819 63 259 0.0 0.0 0.00 0.00 0.00 67 1009.7
20260508222312 63 259 0.0 0.0 0.00 0.00 0.00 65 1009.8
20260508221825 64 259 0.0 0.0 0.00 0.00 0.00 64 1009.8
20260508221318 64 259 0.0 0.0 0.00 0.00 0.00 64 1009.7
20260508220811 64 259 0.0 1.0 0.00 0.00 0.00 62 1009.8
20260508220344 64 259 0.0 1.0 0.00 0.00 0.00 61 1009.7
20260508215815 64 259 0.0 1.0 0.00 0.00 0.00 58 1009.7
20260508215329 65 259 0.0 1.0 0.00 0.00 0.00 59 1009.7
20260508214821 65 267 0.0 3.0 0.00 0.00 0.00 59 1009.7
20260508214338 65 269 1.0 3.0 0.00 0.00 0.00 57 1009.7
20260508213850 65 277 1.0 3.0 0.00 0.00 0.00 57 1009.7
20260508213322 65 281 1.0 3.0 0.00 0.00 0.00 57 1009.7
20260508212811 65 262 1.0 3.0 0.00 0.00 0.00 57 1009.7
20260508212324 65 253 1.0 7.0 0.00 0.00 0.00 56 1009.7
20260508211817 65 230 2.0 5.0 0.00 0.00 0.00 53 1009.7
20260508211330 65 256 1.0 4.0 0.00 0.00 0.00 57 1009.7
20260508210843 66 214 1.0 5.0 0.00 0.00 0.00 54 1009.7
20260508210335 66 251 2.0 8.0 0.00 0.00 0.00 53 1009.8
20260508205827 66 219 3.0 8.0 0.00 0.00 0.00 53 1009.9
20260508205324 66 256 3.0 5.0 0.00 0.00 0.00 54 1010.0
20260508204817 66 178 3.0 6.0 0.00 0.00 0.00 55 1010.1
20260508204329 65 222 3.0 6.0 0.00 0.00 0.00 53 1010.1
20260508203822 65 224 3.0 7.0 0.00 0.00 0.00 55 1010.2
20260508203335 65 242 4.0 7.0 0.00 0.00 0.00 53 1010.4
20260508202827 65 247 4.0 6.0 0.00 0.00 0.00 54 1010.6
20260508202319 65 240 3.0 7.0 0.00 0.00 0.00 54 1010.6
20260508201811 66 248 4.0 7.0 0.00 0.00 0.00 52 1010.7
20260508201345 66 260 5.0 12.0 0.00 0.00 0.00 52 1010.8
20260508200820 66 217 6.0 12.0 0.00 0.00 0.00 52 1010.8
20260508200334 66 253 5.0 11.0 0.00 0.00 0.00 50 1010.9
20260508195825 66 255 5.0 10.0 0.00 0.00 0.00 52 1010.9
20260508195318 66 168 5.0 10.0 0.00 0.00 0.00 51 1010.9
20260508194810 66 233 4.0 11.0 0.00 0.00 0.00 51 1011.0
20260508194324 66 238 6.0 12.0 0.00 0.00 0.00 49 1011.1
20260508193817 66 276 6.0 13.0 0.00 0.00 0.00 50 1011.0
20260508193329 66 264 8.0 14.0 0.00 0.00 0.00 49 1011.1
20260508192842 66 251 6.0 14.0 0.00 0.00 0.00 49 1011.2
20260508192318 66 236 6.0 14.0 0.00 0.00 0.00 48 1011.2
20260508191852 66 153 6.0 14.0 0.00 0.00 0.00 49 1011.2
20260508190815 67 188 5.0 13.0 0.00 0.00 0.00 49 1011.3
20260508190329 67 205 5.0 12.0 0.00 0.00 0.00 50 1011.3
20260508185842 67 257 7.0 12.0 0.00 0.00 0.00 50 1011.4
20260508185313 67 255 6.0 11.0 0.00 0.00 0.00 49 1011.4
20260508184846 67 261 6.0 13.0 0.00 0.00 0.00 51 1011.6
20260508184318 68 220 8.0 13.0 0.00 0.00 0.00 49 1011.6
20260508183831 68 229 5.0 15.0 0.00 0.00 0.00 49 1011.6
20260508183328 68 238 9.0 17.0 0.00 0.00 0.00 51 1011.6
20260508182821 68 205 8.0 17.0 0.00 0.00 0.00 48 1011.7
20260508182314 69 248 4.0 16.0 0.00 0.00 0.00 52 1011.9
20260508181826 68 240 8.0 16.0 0.00 0.00 0.00 49 1012.0
20260508181320 68 236 10.0 15.0 0.00 0.00 0.00 49 1012.0
20260508180812 67 234 7.0 14.0 0.00 0.00 0.00 51 1012.1
20260508180325 67 215 10.0 14.0 0.00 0.00 0.00 49 1012.1
20260508175818 67 219 6.0 10.0 0.00 0.00 0.00 54 1012.3
20260508175315 66 235 6.0 12.0 0.00 0.00 0.00 54 1012.4
20260508174828 66 257 6.0 15.0 0.00 0.00 0.00 55 1012.6
20260508174320 66 241 8.0 15.0 0.00 0.00 0.00 53 1012.7
20260508173812 66 146 4.0 13.0 0.00 0.00 0.00 56 1012.8
20260508173325 65 225 6.0 15.0 0.00 0.00 0.00 54 1012.9
20260508172817 65 255 9.0 15.0 0.00 0.00 0.00 52 1013.0
20260508172330 65 210 6.0 12.0 0.00 0.00 0.00 56 1013.0
20260508171823 65 243 6.0 12.0 0.00 0.00 0.00 54 1013.0
20260508171339 65 214 6.0 13.0 0.00 0.00 0.00 55 1013.1
20260508170811 65 262 9.0 13.0 0.00 0.00 0.00 55 1013.2
20260508170324 64 271 9.0 13.0 0.00 0.00 0.00 56 1013.3
20260508165817 64 233 5.0 15.0 0.00 0.00 0.00 57 1013.3
20260508165330 64 259 8.0 15.0 0.00 0.00 0.00 55 1013.4
20260508164823 64 187 7.0 15.0 0.00 0.00 0.00 57 1013.6
20260508164336 64 258 9.0 15.0 0.00 0.00 0.00 52 1013.7
20260508163827 65 250 9.0 14.0 0.00 0.00 0.00 53 1013.7
20260508163320 66 219 9.0 12.0 0.00 0.00 0.00 55 1013.8
20260508162837 66 200 6.0 13.0 0.00 0.00 0.00 53 1013.7
20260508162329 66 239 7.0 13.0 0.00 0.00 0.00 52 1013.8
20260508161822 66 260 6.0 12.0 0.00 0.00 0.00 58 1013.9
20260508161314 66 221 6.0 12.0 0.00 0.00 0.00 52 1013.9
20260508160826 66 222 7.0 12.0 0.00 0.00 0.00 54 1014.0
20260508160319 66 243 8.0 16.0 0.00 0.00 0.00 54 1014.0
20260508155829 65 231 7.0 16.0 0.00 0.00 0.00 58 1014.1
20260508155322 65 257 12.0 16.0 0.00 0.00 0.00 54 1014.0
20260508154835 65 246 6.0 17.0 0.00 0.00 0.00 57 1014.1
20260508154331 64 251 9.0 17.0 0.00 0.00 0.00 60 1014.1
20260508153823 64 214 7.0 18.0 0.00 0.00 0.00 58 1014.1
20260508153316 64 243 12.0 18.0 0.00 0.00 0.00 55 1014.2
20260508152830 64 224 8.0 13.0 0.00 0.00 0.00 58 1014.3
20260508152322 64 301 7.0 13.0 0.00 0.00 0.00 55 1014.2
20260508151815 64 265 6.0 13.0 0.00 0.00 0.00 56 1014.3
20260508151328 63 216 7.0 18.0 0.00 0.00 0.00 55 1014.3
20260508150821 63 284 11.0 18.0 0.00 0.00 0.00 54 1014.4
20260508150318 63 247 8.0 15.0 0.00 0.00 0.00 56 1014.4
20260508145831 63 250 7.0 15.0 0.00 0.00 0.00 56 1014.5
20260508145323 63 266 8.0 14.0 0.00 0.00 0.00 55 1014.5
20260508144816 63 226 9.0 14.0 0.00 0.00 0.00 54 1014.4
20260508144349 62 231 7.0 14.0 0.00 0.00 0.00 58 1014.6
20260508143821 62 242 8.0 14.0 0.00 0.00 0.00 54 1014.5
20260508143313 62 181 7.0 16.0 0.00 0.00 0.00 56 1014.5
20260508142827 61 235 8.0 16.0 0.00 0.00 0.00 56 1014.6
20260508142323 61 246 10.0 15.0 0.00 0.00 0.00 54 1014.7
20260508141816 61 160 10.0 14.0 0.00 0.00 0.00 55 1014.6
20260508141329 61 257 6.0 12.0 0.00 0.00 0.00 59 1014.7
20260508140822 60 225 5.0 12.0 0.00 0.00 0.00 56 1014.8
20260508140315 60 205 6.0 12.0 0.00 0.00 0.00 57 1014.8
20260508135825 60 257 6.0 15.0 0.00 0.00 0.00 59 1014.8
20260508135318 59 229 7.0 15.0 0.00 0.00 0.00 59 1014.9
20260508134830 59 250 10.0 14.0 0.00 0.00 0.00 56 1015.0
20260508134327 58 266 8.0 12.0 0.00 0.00 0.00 60 1014.9
20260508133821 58 250 7.0 13.0 0.00 0.00 0.00 59 1014.9
20260508133313 58 245 7.0 13.0 0.00 0.00 0.00 60 1014.9
20260508132847 57 246 7.0 14.0 0.00 0.00 0.00 59 1014.9
20260508132318 57 262 8.0 14.0 0.00 0.00 0.00 59 1014.9
20260508131831 57 247 9.0 15.0 0.00 0.00 0.00 61 1014.9
20260508131324 57 212 9.0 15.0 0.00 0.00 0.00 59 1014.9
20260508130836 57 242 7.0 14.0 0.00 0.00 0.00 60 1014.9
20260508130328 56 205 5.0 13.0 0.00 0.00 0.00 61 1014.9
20260508125825 56 168 7.0 13.0 0.00 0.00 0.00 61 1014.9
20260508125337 55 237 5.0 11.0 0.00 0.00 0.00 64 1014.9
20260508124849 54 210 5.0 11.0 0.00 0.00 0.00 67 1014.9
20260508124321 54 193 4.0 7.0 0.00 0.00 0.00 73 1014.9
20260508123813 53 129 0.0 7.0 0.00 0.00 0.00 73 1014.8
20260508123326 53 212 1.0 6.0 0.00 0.00 0.00 73 1014.8
20260508122819 52 217 0.0 5.0 0.00 0.00 0.00 75 1014.7
20260508122312 51 195 3.0 5.0 0.00 0.00 0.00 74 1014.7
20260508121825 51 220 2.0 5.0 0.00 0.00 0.00 75 1014.7
20260508121322 50 209 1.0 4.0 0.00 0.00 0.00 77 1014.7
20260508120814 49 213 1.0 3.0 0.00 0.00 0.00 79 1014.7
20260508120327 49 229 1.0 3.0 0.00 0.00 0.00 80 1014.7
20260508115840 49 209 0.0 2.0 0.00 0.00 0.00 79 1014.8
20260508115312 48 213 0.0 2.0 0.00 0.00 0.00 80 1014.7
20260508114844 48 216 0.0 0.0 0.00 0.00 0.00 81 1014.7
20260508114316 48 214 0.0 0.0 0.00 0.00 0.00 81 1014.7
20260508113849 47 226 0.0 0.0 0.00 0.00 0.00 81 1014.6
20260508113321 46 226 0.0 0.0 0.00 0.00 0.00 82 1014.6
20260508112814 46 226 0.0 0.0 0.00 0.00 0.00 81 1014.5
20260508112330 46 226 0.0 0.0 0.00 0.00 0.00 80 1014.5
20260508111823 47 226 0.0 0.0 0.00 0.00 0.00 79 1014.4
20260508111316 47 226 0.0 0.0 0.00 0.00 0.00 79 1014.4
20260508110829 47 226 0.0 0.0 0.00 0.00 0.00 79 1014.4
20260508110322 47 226 0.0 0.0 0.00 0.00 0.00 78 1014.4
20260508105835 48 226 0.0 0.0 0.00 0.00 0.00 77 1014.4
20260508105327 48 226 0.0 0.0 0.00 0.00 0.00 76 1014.3
20260508104819 48 226 0.0 0.0 0.00 0.00 0.00 75 1014.3
20260508104333 48 225 0.0 0.0 0.00 0.00 0.00 74 1014.2
20260508103828 49 222 0.0 1.0 0.00 0.00 0.00 73 1014.2
20260508103341 49 210 0.0 2.0 0.00 0.00 0.00 73 1014.3
20260508102812 49 243 0.0 3.0 0.00 0.00 0.00 72 1014.4
20260508102326 48 235 1.0 3.0 0.00 0.00 0.00 73 1014.3
20260508101818 48 213 0.0 2.0 0.00 0.00 0.00 76 1014.3
20260508101312 47 229 0.0 0.0 0.00 0.00 0.00 77 1014.3
20260508100824 47 229 0.0 0.0 0.00 0.00 0.00 77 1014.3
20260508100317 47 229 0.0 0.0 0.00 0.00 0.00 77 1014.3
20260508095814 47 229 0.0 0.0 0.00 0.00 0.00 76 1014.3
20260508095327 47 213 0.0 0.0 0.00 0.00 0.00 76 1014.2
20260508094819 47 224 0.0 0.0 0.00 0.00 0.00 76 1014.3
20260508094312 47 224 0.0 1.0 0.00 0.00 0.00 76 1014.2
20260508093825 47 224 0.0 1.0 0.00 0.00 0.00 75 1014.3
20260508093317 47 207 0.0 1.0 0.00 0.00 0.00 76 1014.3
20260508092830 46 192 0.0 1.0 0.00 0.00 0.00 77 1014.3
20260508092323 46 205 0.0 0.0 0.00 0.00 0.00 78 1014.3
20260508091816 45 134 0.0 0.0 0.00 0.00 0.00 79 1014.3
20260508091330 45 134 0.0 0.0 0.00 0.00 0.00 79 1014.3
20260508090823 45 134 0.0 0.0 0.00 0.00 0.00 80 1014.4
20260508090336 44 134 0.0 0.0 0.00 0.00 0.00 80 1014.4
20260508085827 44 134 0.0 0.0 0.00 0.00 0.00 81 1014.3
20260508085319 44 134 0.0 0.0 0.00 0.00 0.00 81 1014.3
20260508084811 44 134 0.0 0.0 0.00 0.00 0.00 82 1014.4
20260508084325 44 134 0.0 0.0 0.00 0.00 0.00 82 1014.3
20260508083814 44 134 0.0 0.0 0.00 0.00 0.00 81 1014.4
20260508083330 44 134 0.0 0.0 0.00 0.00 0.00 79 1014.2
20260508082823 45 134 0.0 0.0 0.00 0.00 0.00 79 1014.2
20260508082315 45 134 0.0 0.0 0.00 0.00 0.00 77 1014.1
20260508081848 45 134 0.0 0.0 0.00 0.00 0.00 77 1014.2
20260508081319 45 134 0.0 1.0 0.00 0.00 0.00 77 1014.2
20260508080812 45 135 0.0 1.0 0.00 0.00 0.00 76 1014.2
20260508080325 45 193 0.0 0.0 0.00 0.00 0.00 76 1014.2
20260508075818 45 193 0.0 1.0 0.00 0.00 0.00 76 1014.2
20260508075315 44 233 0.0 0.0 0.00 0.00 0.00 76 1014.3
20260508074828 45 233 0.0 2.0 0.00 0.00 0.00 76 1014.3
20260508074321 44 233 0.0 2.0 0.00 0.00 0.00 76 1014.2
20260508073814 45 202 0.0 0.0 0.00 0.00 0.00 76 1014.2
20260508073327 45 202 0.0 0.0 0.00 0.00 0.00 75 1014.2
20260508072816 45 202 0.0 0.0 0.00 0.00 0.00 74 1014.1
20260508072345 46 202 0.0 0.0 0.00 0.00 0.00 74 1014.2
20260508071816 46 202 0.0 0.0 0.00 0.00 0.00 73 1014.2
20260508071329 46 202 0.0 0.0 0.00 0.00 0.00 73 1014.2
20260508070826 46 202 0.0 0.0 0.00 0.00 0.00 72 1014.3
20260508070319 46 223 0.0 1.0 0.00 0.00 0.00 72 1014.4
20260508065811 47 223 0.0 1.0 0.00 0.00 0.00 72 1014.4
20260508065324 47 223 0.0 1.0 0.00 0.00 0.00 72 1014.4
20260508064817 47 223 0.0 1.0 0.00 0.00 0.00 72 1014.5
20260508064330 47 223 0.0 2.0 0.00 0.00 0.00 72 1014.6
20260508063823 47 238 0.0 3.0 0.00 0.00 0.00 72 1014.6
20260508063316 47 243 1.0 3.0 0.00 0.00 0.00 72 1014.7
20260508062813 47 241 0.0 3.0 0.00 0.00 0.00 73 1014.7
20260508062325 47 217 1.0 3.0 0.00 0.00 0.00 72 1014.7
20260508061818 47 230 0.0 3.0 0.00 0.00 0.00 73 1014.7
20260508061311 47 220 0.0 3.0 0.00 0.00 0.00 73 1014.9
20260508060824 47 226 0.0 2.0 0.00 0.00 0.00 73 1014.9
20260508060317 47 236 0.0 1.0 0.00 0.00 0.00 73 1014.8
20260508055829 47 217 0.0 2.0 0.00 0.00 0.00 73 1014.8
20260508055322 47 215 0.0 3.0 0.00 0.00 0.00 73 1014.8
20260508054819 46 217 1.0 3.0 0.00 0.00 0.00 74 1014.9
20260508054312 46 243 0.0 2.0 0.00 0.00 0.00 75 1014.9
20260508053825 46 221 0.0 3.0 0.00 0.00 0.00 75 1015.0
20260508053317 45 226 1.0 3.0 0.00 0.00 0.00 76 1014.9
20260508052830 45 231 0.0 1.0 0.00 0.00 0.00 75 1014.9
20260508052322 46 231 0.0 1.0 0.00 0.00 0.00 73 1014.9
20260508051815 46 236 0.0 0.0 0.00 0.00 0.00 72 1014.9
20260508051312 46 236 0.0 1.0 0.00 0.00 0.00 72 1014.9
20260508050845 47 236 0.0 1.0 0.00 0.00 0.00 71 1014.9
20260508050316 47 236 0.0 1.0 0.00 0.00 0.00 71 1014.9
20260508045826 47 226 0.0 2.0 0.00 0.00 0.00 71 1014.9
20260508045319 47 247 0.0 3.0 0.00 0.00 0.00 72 1014.9
20260508044812 47 235 1.0 3.0 0.00 0.00 0.00 72 1015.0
20260508044345 48 250 1.0 3.0 0.00 0.00 0.00 72 1014.9
20260508043816 48 255 0.0 6.0 0.00 0.00 0.00 68 1014.8
20260508043329 48 217 2.0 6.0 0.00 0.00 0.00 68 1014.8
20260508042822 48 172 2.0 5.0 0.00 0.00 0.00 68 1014.7
20260508042319 48 195 3.0 5.0 0.00 0.00 0.00 68 1014.8
20260508041331 47 211 2.0 3.0 0.00 0.00 0.00 69 1014.9
20260508040844 47 217 0.0 3.0 0.00 0.00 0.00 69 1014.8
20260508040315 47 240 0.0 3.0 0.00 0.00 0.00 70 1014.8
20260508035827 47 234 0.0 3.0 0.00 0.00 0.00 70 1014.7
20260508035340 47 256 0.0 0.0 0.00 0.00 0.00 70 1014.8
20260508034812 47 223 0.0 1.0 0.00 0.00 0.00 71 1014.8
20260508034325 47 238 0.0 2.0 0.00 0.00 0.00 72 1014.8